Powrót do katalogu

SL-8 R/B

AktywnyPO
NORAD 18403·ROCKET BODY·🇷🇺 Russia

Wystrzelony Oct 14, 1987 z Plesetsk Cosmodrome

Loading…

Następne Przeloty (najbliższe 24 godziny)

TLE

ŚwieżeSource: Space-Track

Epoka: Sep 14, 2026, 13:24 UTC

1 18403U 87087B   26257.55883468  .00000144  00000-0  12891-3 0  9998
2 18403  82.9143  95.7768 0058792 101.8697 258.9061 13.76849072954589

Śledź SL-8 R/B w czasie rzeczywistym z AllMySat

Download on the App Store